User: anonymous   Login
Location: Unspecified
(0.0000°N, 0.0000°E)
Time: 03:49:34
(UTC+00:00)
Language:

IRS-1D - Orbit

View from above orbital plane
View from above orbital plane
View from above satellite
View from above satellite

Ground track
Ground track

The orbit data is extracted from the following two-line orbital elements,

1 24971U 97057A   18292.85197917 -.00000002  00000-0  14505-4 0  9992
2 24971  98.4887 235.7792 0052502 207.9712 151.8647 14.33933471101592
Epoch (UTC): 19 October 2018 20:26:51
Eccentricity: 0.0052502
inclination: 98.4887°
perigee height: 741 km
apogee height: 816 km
right ascension of ascending node: 235.7792°
argument of perigee: 207.9712°
revolutions per day: 14.33933471
mean anomaly at epoch: 151.8647°
orbit number at epoch: 10159

The dashed part of the orbit path shows where the satellite is in the earth's shadow,  

DLR